ELY323 LLBG-LFPG

Flight info

Callsign ELY323
Flight time N/A
Altitude 34000
Route SUVAS L53 ANIDE DCT LATMO UL53 SOTIX DCT MIL DCT TRL UM601 KFN DCT RUTOM DCT TAGEL DCT POKAV DCT RUGOX DCT MADKA DCT AJO DCT OMEDA DCT MERLU DCT PIGOS DCT BARSO DCT OKTET DCT GIPNO DCT LOGNI DCT MOKIP DCT ARFOZ DCT TINIL
Aircraft B738/M-SDE2E3FGHIRWXY/LB1

Departure

Time N/A
Airport Ben Gurion International Airport (LLBG)

Arrival

Time 2026-05-06 17:28
Airport Charles de Gaulle International Airport (LFPG)
Time Latitude Longitude Altitude Speed Heading
2026-05-06 16:36 45.65838 9.55802 33830 ft 446 kts 294°
2026-05-06 16:37 45.67567 9.52111 34041 ft 446 kts 294°
2026-05-06 16:37 45.71019 9.44725 33847 ft 445 kts 294°
2026-05-06 16:38 45.74466 9.37326 33853 ft 447 kts 294°
2026-05-06 16:38 45.77900 9.29935 33844 ft 448 kts 294°
2026-05-06 16:39 45.81361 9.22472 33870 ft 449 kts 294°
2026-05-06 16:39 45.84818 9.15000 33843 ft 449 kts 294°
2026-05-06 16:40 45.88262 9.07534 33893 ft 448 kts 294°
2026-05-06 16:40 45.91689 9.00079 33860 ft 451 kts 294°
2026-05-06 16:41 45.95145 8.92545 33862 ft 451 kts 294°
2026-05-06 16:41 45.98592 8.85016 33859 ft 450 kts 294°
2026-05-06 16:42 46.02011 8.77522 33857 ft 451 kts 294°
2026-05-06 16:42 46.05466 8.69928 33855 ft 452 kts 294°
2026-05-06 16:43 46.08888 8.62387 33842 ft 452 kts 294°
2026-05-06 16:43 46.12322 8.54809 33873 ft 450 kts 294°
2026-05-06 16:44 46.15743 8.47230 33882 ft 451 kts 294°
2026-05-06 16:44 46.19160 8.39634 33873 ft 451 kts 294°
2026-05-06 16:45 46.22562 8.32054 33900 ft 453 kts 295°
2026-05-06 16:45 46.25990 8.24395 33894 ft 454 kts 295°
2026-05-06 16:46 46.29419 8.16709 33929 ft 455 kts 295°
2026-05-06 16:46 46.32835 8.09040 33896 ft 455 kts 295°
2026-05-06 16:47 46.36269 8.01311 33938 ft 457 kts 296°
2026-05-06 16:47 46.39700 7.93562 33901 ft 460 kts 296°
2026-05-06 16:48 46.43155 7.85739 33895 ft 462 kts 296°
2026-05-06 16:48 46.46614 7.77888 33900 ft 462 kts 296°
2026-05-06 16:49 46.50067 7.70027 33909 ft 460 kts 296°
2026-05-06 16:49 46.53483 7.62226 33910 ft 460 kts 296°
2026-05-06 16:50 46.56919 7.54355 33903 ft 460 kts 296°
2026-05-06 16:50 46.60340 7.46498 33898 ft 460 kts 296°
2026-05-06 16:51 46.63759 7.38623 33900 ft 459 kts 296°
2026-05-06 16:51 46.67153 7.30784 33918 ft 459 kts 296°
2026-05-06 16:52 46.70568 7.22871 33910 ft 460 kts 296°
2026-05-06 16:52 46.73951 7.15012 33912 ft 461 kts 296°
2026-05-06 16:52 46.75655 7.11043 33588 ft 461 kts 297°
2026-05-06 16:53 46.77354 7.07084 33716 ft 461 kts 297°
2026-05-06 16:53 46.80773 6.99091 33876 ft 466 kts 297°
2026-05-06 16:54 46.84220 6.91009 33923 ft 471 kts 297°
2026-05-06 16:54 46.87678 6.82887 33918 ft 473 kts 297°
2026-05-06 16:55 46.91156 6.74692 33913 ft 474 kts 297°
2026-05-06 16:55 46.94608 6.66533 33888 ft 473 kts 297°
2026-05-06 16:56 46.98068 6.58332 33877 ft 472 kts 297°
2026-05-06 16:56 47.01505 6.50157 33915 ft 471 kts 297°
2026-05-06 16:57 47.04942 6.41959 33902 ft 471 kts 297°
2026-05-06 16:57 47.08348 6.33808 33913 ft 470 kts 297°
2026-05-06 16:58 47.11768 6.25600 33913 ft 471 kts 297°
2026-05-06 16:58 47.15180 6.17388 33926 ft 470 kts 297°
2026-05-06 16:59 47.18566 6.09213 33906 ft 471 kts 297°
2026-05-06 16:59 47.21974 6.00961 33893 ft 471 kts 297°
2026-05-06 17:00 47.25379 5.92693 33897 ft 471 kts 297°
2026-05-06 17:00 47.28754 5.84472 33904 ft 472 kts 297°
2026-05-06 17:01 47.32152 5.76168 33905 ft 473 kts 297°
2026-05-06 17:01 47.35547 5.67845 33902 ft 473 kts 297°
2026-05-06 17:02 47.38925 5.59540 33920 ft 475 kts 297°
2026-05-06 17:02 47.42329 5.51145 33897 ft 475 kts 297°
2026-05-06 17:03 47.45719 5.42761 33906 ft 474 kts 297°
2026-05-06 17:03 47.49076 5.34431 33904 ft 475 kts 297°
2026-05-06 17:04 47.52459 5.26009 33904 ft 476 kts 297°
2026-05-06 17:04 47.55839 5.17570 33906 ft 476 kts 297°
2026-05-06 17:05 47.59328 5.09294 33888 ft 480 kts 308°
2026-05-06 17:05 47.63539 5.03788 33912 ft 483 kts 318°
2026-05-06 17:06 47.68717 4.97503 33919 ft 484 kts 318°
2026-05-06 17:06 47.73899 4.91072 33902 ft 484 kts 317°
2026-05-06 17:07 47.79042 4.84585 33917 ft 484 kts 317°
2026-05-06 17:07 47.84130 4.78133 33906 ft 483 kts 317°
2026-05-06 17:08 47.89255 4.71620 33910 ft 483 kts 317°
2026-05-06 17:08 47.94368 4.65111 33917 ft 483 kts 317°
2026-05-06 17:09 47.99449 4.58626 33919 ft 483 kts 317°
2026-05-06 17:09 48.02004 4.55358 33649 ft 487 kts 317°
2026-05-06 17:09 48.04592 4.52041 32944 ft 487 kts 317°
2026-05-06 17:09 48.07154 4.48756 32247 ft 484 kts 317°
2026-05-06 17:10 48.09711 4.45473 31512 ft 484 kts 317°
2026-05-06 17:10 48.12272 4.42180 30749 ft 484 kts 317°
2026-05-06 17:10 48.14794 4.38924 29982 ft 485 kts 317°
2026-05-06 17:10 48.17337 4.35600 29063 ft 485 kts 316°
2026-05-06 17:11 48.19869 4.32269 28183 ft 484 kts 317°
2026-05-06 17:11 48.22371 4.28978 28008 ft 468 kts 317°
2026-05-06 17:11 48.24793 4.25794 27888 ft 457 kts 319°
2026-05-06 17:11 48.27120 4.22607 27433 ft 449 kts 314°
2026-05-06 17:12 48.29184 4.19133 26931 ft 442 kts 309°
2026-05-06 17:12 48.31097 4.15549 26382 ft 438 kts 308°
2026-05-06 17:12 48.32938 4.12000 25846 ft 433 kts 308°
2026-05-06 17:12 48.34792 4.08450 25341 ft 429 kts 309°
2026-05-06 17:13 48.36643 4.04965 24814 ft 425 kts 309°
2026-05-06 17:13 48.38498 4.01523 24323 ft 421 kts 309°
2026-05-06 17:13 48.40346 3.98123 23808 ft 417 kts 310°
2026-05-06 17:13 48.42183 3.94753 23266 ft 414 kts 310°
2026-05-06 17:14 48.44000 3.91421 22686 ft 410 kts 310°
2026-05-06 17:14 48.45802 3.88113 22199 ft 404 kts 309°
2026-05-06 17:14 48.47575 3.84851 21684 ft 400 kts 309°
2026-05-06 17:14 48.49323 3.81631 21197 ft 395 kts 309°
2026-05-06 17:15 48.51034 3.78475 20680 ft 391 kts 309°
2026-05-06 17:15 48.52745 3.75315 20179 ft 387 kts 309°
2026-05-06 17:15 48.54419 3.72164 19718 ft 382 kts 306°
2026-05-06 17:15 48.55895 3.68847 19345 ft 378 kts 302°
2026-05-06 17:16 48.57277 3.65478 18965 ft 379 kts 302°
2026-05-06 17:16 48.58689 3.62076 18591 ft 383 kts 302°
2026-05-06 17:16 48.60131 3.58677 18206 ft 384 kts 302°
2026-05-06 17:16 48.61646 3.55363 17647 ft 382 kts 309°
2026-05-06 17:17 48.63474 3.52440 17019 ft 382 kts 314°
2026-05-06 17:17 48.65366 3.49685 16414 ft 383 kts 315°
2026-05-06 17:17 48.67293 3.46918 15808 ft 381 kts 315°
2026-05-06 17:17 48.69204 3.44151 15215 ft 379 kts 315°
2026-05-06 17:18 48.71095 3.41378 14628 ft 377 kts 315°
2026-05-06 17:18 48.72967 3.38603 14054 ft 375 kts 314°
2026-05-06 17:18 48.74817 3.35839 13448 ft 373 kts 315°
2026-05-06 17:18 48.76660 3.33070 12818 ft 372 kts 315°
2026-05-06 17:19 48.78477 3.30334 12204 ft 363 kts 315°
2026-05-06 17:19 48.80235 3.27681 11655 ft 350 kts 315°
2026-05-06 17:19 48.81937 3.25111 11115 ft 339 kts 315°
2026-05-06 17:19 48.83563 3.22651 10597 ft 330 kts 315°
2026-05-06 17:20 48.85170 3.20218 10095 ft 321 kts 315°
2026-05-06 17:20 48.86727 3.17860 9796 ft 307 kts 315°
2026-05-06 17:20 48.88186 3.15647 9771 ft 285 kts 315°
2026-05-06 17:20 48.89553 3.13572 9624 ft 270 kts 315°
2026-05-06 17:21 48.90853 3.11597 9248 ft 266 kts 315°
2026-05-06 17:21 48.92156 3.09617 8839 ft 264 kts 315°
2026-05-06 17:21 48.93451 3.07648 8517 ft 260 kts 315°
2026-05-06 17:21 48.94709 3.05733 8284 ft 252 kts 315°
2026-05-06 17:22 48.95925 3.03881 8112 ft 243 kts 315°
2026-05-06 17:22 48.97102 3.02086 8033 ft 234 kts 316°
2026-05-06 17:22 48.98242 3.00348 7866 ft 230 kts 316°
2026-05-06 17:22 48.99358 2.98645 7524 ft 231 kts 316°
2026-05-06 17:23 49.00529 2.96828 6689 ft 249 kts 310°
2026-05-06 17:23 49.01284 2.94389 5782 ft 267 kts 279°
2026-05-06 17:23 49.01264 2.91479 4795 ft 285 kts 265°
2026-05-06 17:23 49.01074 2.88460 4133 ft 281 kts 266°
2026-05-06 17:24 49.00900 2.85536 3650 ft 271 kts 266°
2026-05-06 17:24 49.00740 2.82742 3264 ft 258 kts 267°
2026-05-06 17:24 49.00590 2.80087 2936 ft 245 kts 268°
2026-05-06 17:24 49.00449 2.77562 2612 ft 233 kts 268°
2026-05-06 17:25 49.00314 2.75155 2328 ft 223 kts 268°
2026-05-06 17:25 49.00186 2.72868 2036 ft 209 kts 268°
2026-05-06 17:25 49.00068 2.70736 1761 ft 195 kts 269°
2026-05-06 17:25 48.99958 2.68753 1485 ft 181 kts 269°
2026-05-06 17:26 48.99859 2.66946 1286 ft 164 kts 269°
2026-05-06 17:26 48.99766 2.65267 1017 ft 151 kts 269°
2026-05-06 17:26 48.99679 2.63782 841 ft 134 kts 270°
2026-05-06 17:26 48.99594 2.62358 637 ft 137 kts 269°
2026-05-06 17:27 48.99519 2.60891 475 ft 138 kts 269°
2026-05-06 17:27 48.99442 2.59471 359 ft 127 kts 273°
2026-05-06 17:27 48.99389 2.58353 352 ft 77 kts 265°
2026-05-06 17:27 48.99352 2.57651 358 ft 51 kts 266°
2026-05-06 17:28 48.99379 2.57336 352 ft 18 kts 284°
2026-05-06 17:28 48.99410 2.57150 355 ft 15 kts 285°
2026-05-06 17:28 48.99414 2.57130 361 ft 0 kts 286°
2026-05-06 17:29 48.99417 2.57112 360 ft 4 kts 286°
2026-05-06 17:29 48.99433 2.57032 356 ft 11 kts 287°
2026-05-06 17:29 48.99460 2.56887 356 ft 17 kts 285°
2026-05-06 17:30 48.99475 2.56718 356 ft 17 kts 270°
2026-05-06 17:30 48.99532 2.56638 357 ft 10 kts
2026-05-06 17:30 48.99615 2.56623 363 ft 14 kts 355°
2026-05-06 17:30 48.99731 2.56611 354 ft 18 kts 355°
2026-05-06 17:31 48.99828 2.56664 357 ft 18 kts 62°
2026-05-06 17:31 48.99845 2.56875 360 ft 22 kts 81°
2026-05-06 17:31 48.99916 2.57020 358 ft 19 kts 35°
2026-05-06 17:31 48.99952 2.57191 356 ft 14 kts 85°
2026-05-06 17:32 49.00015 2.57287 360 ft 14 kts 21°
2026-05-06 17:32 49.00045 2.57424 353 ft 16 kts 85°
2026-05-06 17:32 49.00055 2.57613 353 ft 19 kts 85°
2026-05-06 17:32 49.00066 2.57794 353 ft 9 kts 85°
2026-05-06 17:33 49.00103 2.57826 358 ft 7 kts 358°
2026-05-06 17:33 49.00150 2.57820 353 ft 5 kts 355°
2026-05-06 17:33 49.00156 2.57820 353 ft 0 kts 355°